EB5EEV-5 Weather Reports


time (UTC)temp
C
wind
direction
speed
KPH
gust
KPH
rain 1hr
cm
rain 24hr
cm
rain mn
cm
humidity
%
barometer
mb
20260504081001 19 289 3.2 4.8 0.00 0.00 0.00 8 1009.1
20260504070208 19 0 0.0 0.0 0.00 0.00 0.00 8 1009.0
20260504045521 16 139 1.6 1.6 0.00 0.00 0.00 8 1008.8
20260504044253 17 0 0.0 0.0 0.00 0.00 0.00 8 1008.8
20260504042906 17 0 0.0 0.0 0.00 0.00 0.00 8 1008.9
20260504041706 17 0 0.0 0.0 0.00 0.00 0.00 8 1008.9
20260504040431 17 0 0.0 1.6 0.00 0.00 0.00 8 1009.0
20260504035018 17 0 0.0 0.0 0.00 0.00 0.00 8 1009.1
20260504033641 17 0 0.0 1.6 0.00 0.00 0.00 8 1009.4
20260504032441 17 0 0.0 1.6 0.00 0.00 0.00 8 1009.4
20260504031232 17 0 0.0 1.6 0.00 0.00 0.00 8 1009.6
20260504025956 17 0 0.0 1.6 0.00 0.00 0.00 8 1009.7
20260504024756 17 0 0.0 1.6 0.00 0.00 0.00 8 1009.7
20260504023455 17 0 0.0 1.6 0.00 0.00 0.00 8 1009.7
20260504022131 17 0 0.0 0.0 0.00 0.00 0.00 8 1009.5
20260504020711 17 0 0.0 0.0 0.00 0.00 0.00 8 1009.7
20260504015333 17 0 0.0 0.0 0.00 0.00 0.00 8 1009.6
20260504014109 17 0 0.0 1.6 0.00 0.00 0.00 8 1009.6
20260504012626 17 0 0.0 0.0 0.00 0.00 0.00 8 1009.6
20260504011214 17 0 0.0 1.6 0.00 0.00 0.00 8 1009.6
20260504005831 17 0 0.0 1.6 0.00 0.00 0.00 8 1009.5
20260504004456 17 0 0.0 1.6 0.00 0.00 0.00 8 1009.6
20260504003026 17 0 0.0 0.0 0.00 0.00 0.00 8 1009.8
20260504001706 17 0 0.0 0.0 0.00 0.00 0.00 8 1009.8
20260504000441 17 0 0.0 0.0 0.00 0.00 0.00 8 1010.1
20260503235221 17 0 0.0 0.0 0.00 0.00 0.00 8 1010.2
20260503233756 17 0 0.0 1.6 0.00 0.00 0.00 8 1010.4
20260503232529 17 0 0.0 0.0 0.00 0.00 0.00 8 1010.3
20260503231054 17 0 0.0 1.6 0.00 0.00 0.00 8 1010.4
20260503225816 17 0 0.0 0.0 0.00 0.00 0.00 8 1010.3
20260503224540 17 335 3.2 3.2 0.00 0.00 0.00 8 1010.4
20260503223321 17 335 3.2 3.2 0.00 0.00 0.00 8 1010.4
20260503221826 17 339 1.6 3.2 0.00 0.00 0.00 8 1010.4
20260503220530 17 0 0.0 1.6 0.00 0.00 0.00 8 1010.4
20260503215151 17 0 0.0 0.0 0.00 0.00 0.05 8 1010.6
20260503213821 17 0 0.0 0.0 0.00 0.00 0.05 8 1010.7
20260503212524 17 0 0.0 0.0 0.00 0.00 0.05 8 1010.9
20260503211115 17 0 0.0 0.0 0.00 0.00 0.05 8 1010.9
20260503205715 17 289 1.6 1.6 0.00 0.00 0.05 8 1010.9
20260503204348 17 0 0.0 0.0 0.00 0.00 0.05 8 1010.3
20260503203148 17 0 0.0 0.0 0.00 0.00 0.05 8 1010.3
20260503201926 17 0 0.0 0.0 0.00 0.00 0.05 8 1010.1
20260503200611 17 0 0.0 1.6 0.00 0.00 0.05 8 1009.7
20260503195300 17 0 0.0 0.0 0.00 0.00 0.05 8 1009.7
20260503193953 17 0 0.0 0.0 0.03 0.00 0.05 8 1009.5
20260503192556 17 0 0.0 0.0 0.03 0.00 0.05 8 1009.6
20260503191240 17 157 3.2 3.2 0.03 0.00 0.05 8 1009.7
20260503185851 17 180 1.6 6.4 0.00 0.00 0.03 8 1009.5
20260503184410 18 0 0.0 0.0 0.00 0.00 0.00 8 1009.4
20260503183031 18 263 1.6 1.6 0.00 0.00 0.00 8 1009.5
20260503181644 18 263 1.6 1.6 0.00 0.00 0.00 8 1009.5
20260503180323 18 0 0.0 1.6 0.00 0.00 0.00 8 1009.4
20260503174929 18 0 0.0 0.0 0.00 0.00 0.00 8 1009.1
20260503173606 18 0 0.0 1.6 0.00 0.00 0.00 7 1009.4
20260503172345 18 0 0.0 1.6 0.00 0.00 0.00 7 1009.3
20260503170916 18 0 0.0 4.8 0.00 0.00 0.00 7 1009.2
20260503150212 19 222 4.8 6.4 0.00 0.00 0.00 7 1009.9
20260503130141 21 209 4.8 6.4 0.00 0.00 0.00 6 1010.5